011  
ASUS44 KMAF 022210  
RWRMAF  
MIDLAND AREA WEATHER ROUNDUP  
NATIONAL WEATHER SERVICE MIDLAND TX  
500 PM CDT THU JUL 02 2020  
   
..IN SOUTHWEST TEXAS AND SOUTHEAST NEW MEXICO
 
 
 
CITY SKY/WX TMP DP RH WIND PRES REMARKS
 
ALPINE CLOUDY 83 55 39 SW10 30.12F  
ANDREWS FAIR 96 56 26 SE9G20 29.96F  
ARTESIA MOSUNNY 97 54 23 S15G25 29.96F  
BIG SPRING MOSUNNY 96 62 31 S13 29.94F  
CARLSBAD MOSUNNY 94 50 22 S7 29.94F  
DRYDEN N/A 90 65 43 SE15G21 29.96  
FORT STOCKTON PTSUNNY 93 65 39 SE15G28 29.96R  
GUAD PASS MOSUNNY N/A N/A N/A SW10 30.15F  
HOBBS PTSUNNY 97 45 16 VRB6 29.98F  
LAMESA NOT AVBL  
MARFA CLOUDY 80 57 45 SE15 30.11S  
MIDLAND AIRPK PTSUNNY 99 58 26 SE12G20 29.94F  
MIDLAND INTL MOSUNNY 95 56 26 S14 29.94F  
ODESSA MOSUNNY 97 55 24 S7 29.95F  
PECOS MOSUNNY 100 50 18 N6 29.90F  
PRESIDIO FAIR 98 55 23 E5 29.94F  
SEMINOLE MOSUNNY 98 53 21 SE9 30.01S  
SNYDER CLOUDY 87 71 58 NE16G25 29.98R  
WINK MOSUNNY 100 51 19 VRB7 29.90F  

   
..OTHER STATIONS IN TEXAS
 
 
 
CITY SKY/WX TMP DP RH WIND PRES REMARKS
 
ABILENE MOSUNNY 92 72 51 S9G18 29.94F  
AMARILLO PTSUNNY 79 59 50 NE20G25 30.04F THUNDER  
AUSTIN SUNNY 95 71 45 S10 29.93F HX 102  
BROWNSVILLE SUNNY 91 73 55 SE16 29.92S  
CORPUS CHRISTI PTSUNNY 87 78 74 SE16 29.93F HX 100  
DALLAS FTW TSTM 79 73 82 S16 29.92R  
DEL RIO SUNNY 100 66 32 SE18G26 29.87F HX 104  
EL PASO MOSUNNY 95 49 20 VRB6 29.99F  
HOUSTON INT MOSUNNY 96 70 42 VRB3 29.92F HX 102  
LUBBOCK MOSUNNY 96 60 30 SE18 29.98F  
SAN ANGELO SUNNY 95 58 28 S14 29.93F  
SAN ANTONIO MOSUNNY 98 62 30 S15G23 29.93F  
WACO PTSUNNY 95 71 45 S9 29.91F HX 102  
WICHITA FALLS MOSUNNY 95 59 30 SE12 29.92S  

   
..OTHER LOCATIONS IN NEW MEXICO
 
 
 
CITY SKY/WX TMP DP RH WIND PRES REMARKS
 
ALAMOGORDO MOSUNNY 93 45 18 SW14 30.01F  
ALBUQUERQUE MOSUNNY 91 32 12 VRB3G22 30.07F  
CANNON AFB CLOUDY 90 45 20 SE13G25 30.06S  
CLOVIS CLOUDY 92 44 19 S9 30.05S  
HOLLOMAN AFB PTSUNNY 95 49 20 SW13G22 30.00F  
ROSWELL MOSUNNY 101 48 16 S9G22 29.95F  
RUIDOSO PTSUNNY 81 45 28 N8G20 30.24F  
SANTA FE MOSUNNY 90 25 9 CALM 30.14F  
TRUTH OR CONSE MOSUNNY 95 48 20 S13G18 30.04F  
TUCUMCARI PTSUNNY 95 42 16 S13 30.00S  

 
 
 
CLICK HERE TO GO TO PREVIOUS BULLETINS.

The Nexlab TX Page
The Nexlab NM Page Main Text Page